Flag for France Weather past 2 weeks in Aix-en-Provence, France

Now
36 °F

Clear.


Feels Like: 36 °F
Forecast: 33 / 45 °F
Wind: No wind

Location: Marseille / Marignane

Current Time: Jan 31, 2015 at 5:30:32 AM

Latest Report: Jan 31, 2015 at 5:00 AM


Visibility: 10 mi

Pressure: 29.09 "Hg

Humidity: 81%

Dew point: 30 °F

Location of Aix-en-ProvenceLocation

Historic Weather in Aix-en-Provence — Graph

°F

Aix-en-Provence temperature yesterday

Maximum temperature yesterday: 52 °F (at 12:00 AM)
Minimum temperature yesterday: 41 °F (at 8:30 AM)
Average temperature yesterday: 46 °F

Past Weeks' High & Low Weather Summary

 TemperatureHumidityPressure
High59 °F (Jan 16, 3:00 AM)100% (Jan 21, 4:00 AM)30.27 "Hg (Jan 21, 4:00 AM)
Low30 °F (Jan 18, 6:00 AM)43% (Jan 24, 3:30 PM)29.09 "Hg (Jan 30, 4:00 AM)
Average45 °F73%29.85 "Hg
* Reported Jan 16 3:00 AM — Jan 31 3:30 AM, Aix-en-Provence, Weather by CustomWeather, © 2014

Note: Actual official high and low records may vary slightly from our data, if they occured in-between our weather recording intervals... More about our weather records

Advertising

Aix-en-Provence weather history for previous 24 hours

 ConditionsComfort  
Time TempWeatherWind HumidityBarometerVisibility
3:30 AM
Jan 31
36 °FClear.No wind87%29.12 "HgN/A
3:00 AM36 °FClear.3 mph93%29.15 "HgN/A
2:30 AM36 °FClear.1 mph87%29.15 "HgN/A
2:00 AM36 °FClear.3 mph87%29.15 "HgN/A
1:30 AM34 °FClear.6 mph87%29.15 "HgN/A
1:00 AM37 °FClear.6 mph87%29.15 "HgN/A
12:30 AM37 °FClear.1 mph87%29.18 "HgN/A
12:00 AM41 °FPassing clouds.6 mph76%29.15 "HgN/A
11:30 PM
Jan 30
43 °FClear.6 mph76%29.15 "Hg10 mi
11:00 PM43 °FClear.8 mph76%29.15 "Hg10 mi
10:30 PM43 °FClear.10 mph81%29.15 "Hg10 mi
10:00 PM45 °FClear.15 mph76%29.15 "Hg10 mi
9:30 PM45 °FClear.14 mph76%29.15 "Hg10 mi
9:00 PM45 °FClear.17 mph76%29.18 "Hg10 mi
8:30 PM46 °FClear.18 mph71%29.18 "Hg10 mi
8:00 PM46 °FClear.21 mph71%29.18 "Hg10 mi
7:30 PM46 °FClear.22 mph71%29.18 "Hg10 mi
7:00 PM46 °FClear.20 mph66%29.18 "Hg10 mi
6:30 PM46 °FClear.22 mph66%29.18 "Hg10 mi
6:00 PM46 °FClear.22 mph66%29.18 "Hg10 mi
5:30 PM46 °FSunny.21 mph57%29.15 "Hg10 mi
5:00 PM46 °FSunny.20 mph53%29.18 "Hg10 mi
4:30 PM48 °FSunny.20 mph50%29.18 "Hg10 mi
4:00 PM48 °FSunny.18 mph46%29.18 "Hg10 mi
3:30 PM48 °FSunny.18 mph46%29.18 "Hg10 mi
3:00 PM48 °FSunny.9 mph54%29.18 "Hg10 mi
2:30 PM48 °FSunny.12 mph46%29.21 "Hg10 mi
2:00 PM48 °FSunny.10 mph50%29.21 "Hg10 mi
1:30 PM46 °FSunny.9 mph50%29.24 "Hg10 mi
1:00 PM46 °FSunny.12 mph53%29.24 "Hg10 mi
12:30 PM46 °FPassing clouds.12 mph53%29.27 "HgN/A
12:00 PM46 °FPassing clouds.15 mph50%29.27 "HgN/A
11:30 AM46 °FPassing clouds.15 mph53%29.27 "HgN/A
11:00 AM45 °FPassing clouds.15 mph53%29.27 "HgN/A
10:30 AM45 °FPassing clouds.20 mph53%29.27 "HgN/A
10:00 AM43 °FPassing clouds.22 mph53%29.24 "HgN/A
9:30 AM43 °FPassing clouds.17 mph61%29.24 "HgN/A
9:00 AM41 °FPassing clouds.21 mph61%29.21 "HgN/A
8:30 AM41 °FPassing clouds.20 mph61%29.21 "HgN/A
8:00 AM43 °FScattered clouds.24 mph61%29.18 "HgN/A
7:30 AM43 °FPassing clouds.26 mph71%29.18 "HgN/A
7:00 AM45 °FPassing clouds.20 mph71%29.15 "HgN/A
6:30 AM45 °FPartly cloudy.24 mph71%29.12 "HgN/A
6:00 AM46 °FPassing clouds.28 mph66%29.15 "HgN/A
5:30 AM48 °FClear.26 mph62%29.12 "Hg10 mi
5:00 AM48 °FClear.22 mph62%29.12 "Hg10 mi
Weather by CustomWeather, © 2014

See weather overviewHow to use our weather pages